FW9219 Weather Reports


time (UTC)temp
C
wind
direction
speed
KPH
gust
KPH
rain 1hr
cm
rain 24hr
cm
rain mn
cm
humidity
%
barometer
mb
20260506212709 21 248 6.4 14.5 0.00 0.00 0.00 81 1006.9
20260506212159 21 248 3.2 14.5 0.00 0.00 0.00 81 1006.8
20260506211139 21 248 4.8 14.5 0.00 0.00 0.00 81 1006.6
20260506210628 22 225 3.2 14.5 0.00 0.00 0.00 81 1006.8
20260506210118 22 248 4.8 14.5 0.00 0.00 0.00 80 1006.5
20260506205058 22 225 3.2 14.5 0.00 0.00 0.00 79 1006.8
20260506204548 22 248 0.0 14.5 0.00 0.00 0.00 79 1006.8
20260506203527 22 248 6.4 12.9 0.00 0.00 0.00 78 1006.3
20260506203018 23 248 3.2 14.5 0.00 0.00 0.00 77 1006.2
20260506202508 23 248 1.6 17.7 0.00 0.00 0.00 77 1006.4
20260506201958 23 203 3.2 17.7 0.00 0.00 0.00 75 1006.3
20260506201447 23 225 8.0 14.5 0.00 0.00 0.00 74 1006.4
20260506200937 24 248 8.0 24.1 0.00 0.00 0.00 73 1006.3
20260506195917 25 225 6.4 22.5 0.00 0.00 0.00 71 1006.3
20260506195406 25 225 8.0 24.1 0.00 0.00 0.00 71 1006.3
20260506194857 25 248 14.5 24.1 0.00 0.00 0.00 70 1006.1
20260506194347 25 225 6.4 14.5 0.00 0.00 0.00 70 1006.1
20260506193836 25 203 3.2 17.7 0.00 0.00 0.00 71 1006.0
20260506193326 25 225 6.4 17.7 0.00 0.00 0.00 71 1006.3
20260506192816 25 248 9.7 17.7 0.00 0.00 0.00 73 1005.8
20260506192306 25 225 8.0 14.5 0.00 0.00 0.00 72 1006.2
20260506191756 25 248 8.0 14.5 0.00 0.00 0.00 72 1006.3
20260506191246 26 225 6.4 12.9 0.00 0.00 0.00 70 1006.2
20260506190736 26 203 6.4 9.7 0.00 0.00 0.00 70 1006.4
20260506190226 25 225 1.6 6.4 0.00 0.00 0.00 71 1006.4
20260506185716 26 248 1.6 3.2 0.00 0.00 0.00 68 1006.5
20260506185206 26 248 0.0 3.2 0.00 0.00 0.00 71 1006.5
20260506184145 25 248 0.0 9.7 0.00 0.00 0.00 70 1006.8
20260506183125 25 248 3.2 6.4 0.00 0.00 0.00 71 1007.1
20260506182615 25 225 0.0 9.7 0.00 0.00 0.00 71 1007.1
20260506181555 25 203 0.0 6.4 0.00 0.00 0.00 67 1007.0
20260506180539 24 293 0.0 0.0 0.00 0.00 0.00 69 1007.2
20260506180025 23 338 0.0 3.2 0.00 0.00 0.00 70 1007.3
20260506175515 24 338 0.0 3.2 0.00 0.00 0.00 69 1007.7
20260506175004 23 338 0.0 6.4 0.00 0.00 0.00 69 1007.5
20260506174454 24 315 0.0 6.4 0.00 0.00 0.00 71 1007.8
20260506173943 23 315 4.8 12.9 0.00 0.00 0.00 71 1007.8
20260506173443 23 338 0.0 12.9 0.00 0.00 0.00 70 1007.9
20260506172924 23 315 6.4 11.3 0.00 0.00 0.00 70 1008.0
20260506171353 22 0 0.0 12.9 0.00 0.00 0.00 71 1008.2
20260506170333 22 293 6.4 11.3 0.00 0.00 0.00 73 1008.3
20260506165823 22 293 6.4 11.3 0.00 0.00 0.00 73 1008.6
20260506164803 22 270 0.0 6.4 0.00 0.00 0.00 72 1008.7
20260506164253 22 293 0.0 3.2 0.00 0.00 0.00 73 1008.7
20260506163743 22 338 1.6 6.4 0.00 0.00 0.00 72 1008.8
20260506163232 22 315 0.0 6.4 0.00 0.00 0.00 72 1009.1
20260506162722 23 293 0.0 0.0 0.00 0.00 0.00 72 1009.0
20260506162212 22 293 0.0 0.0 0.00 0.00 0.00 70 1009.0
20260506161703 22 0 0.0 3.2 0.00 0.00 0.00 72 1009.2
20260506160652 22 315 3.2 11.3 0.00 0.00 0.00 77 1009.5
20260506160132 21 0 1.6 11.3 0.00 0.00 0.00 77 1009.5
20260506155622 20 293 3.2 9.7 0.00 0.00 0.00 78 1009.6
20260506155111 20 315 4.8 11.3 0.00 0.00 0.00 80 1010.0
20260506154051 20 338 4.8 17.7 0.00 0.00 0.00 81 1010.1
20260506153541 19 315 3.2 9.7 0.00 0.00 0.00 82 1010.2
20260506153031 20 315 4.8 9.7 0.00 0.00 0.00 84 1010.5
20260506152521 19 315 4.8 12.9 0.00 0.00 0.00 85 1010.5
20260506152010 18 338 3.2 12.9 0.00 0.00 0.00 85 1010.7
20260506151501 18 315 6.4 14.5 0.00 0.00 0.00 87 1010.9
20260506145930 17 315 6.4 11.3 0.00 0.00 0.00 89 1011.4
20260506145421 17 270 8.0 12.9 0.00 0.00 0.00 90 1011.4
20260506144910 17 293 6.4 12.9 0.00 0.00 0.00 90 1011.5
20260506143850 17 293 9.7 14.5 0.00 0.00 0.00 90 1011.6
20260506143340 17 293 6.4 12.9 0.00 0.00 0.00 91 1011.7
20260506142837 16 270 8.0 12.9 0.00 0.00 0.00 90 1012.1
20260506142319 16 315 3.2 11.3 0.00 0.00 0.00 91 1011.9
20260506141810 16 315 4.8 11.3 0.00 0.00 0.00 92 1012.2
20260506141300 16 315 3.2 11.3 0.00 0.00 0.00 92 1012.4
20260506140749 16 338 6.4 11.3 0.00 0.00 0.00 93 1012.3
20260506140242 15 45 4.8 12.9 0.00 0.00 0.00 93 1012.5
20260506135729 15 0 6.4 12.9 0.00 0.00 0.00 93 1012.3
20260506135219 15 315 6.4 12.9 0.00 0.00 0.00 93 1012.5
20260506134159 15 23 6.4 12.9 0.00 0.00 0.00 93 1012.4
20260506133648 15 0 0.0 9.7 0.00 0.00 0.00 93 1012.1
20260506133140 15 23 3.2 11.3 0.00 0.00 0.00 93 1012.2
20260506132628 15 315 6.4 11.3 0.00 0.00 0.00 94 1012.4
20260506131607 15 315 8.0 12.9 0.00 0.00 0.00 94 1012.5
20260506131059 15 338 6.4 11.3 0.00 0.00 0.00 94 1012.2
20260506130549 15 315 4.8 9.7 0.00 0.00 0.00 94 1012.3
20260506130038 15 45 0.0 11.3 0.00 0.00 0.00 94 1012.3
20260506125018 15 45 4.8 11.3 0.00 0.00 0.00 94 1012.4
20260506124507 15 23 6.4 11.3 0.00 0.00 0.00 94 1012.2
20260506123957 15 0 8.0 11.3 0.00 0.00 0.00 94 1012.5
20260506123447 15 23 6.4 11.3 0.00 0.00 0.00 94 1012.3
20260506122427 15 45 0.0 3.2 0.00 0.00 0.00 94 1012.4
20260506121917 15 45 0.0 3.2 0.00 0.00 0.00 93 1012.4
20260506121407 15 338 0.0 3.2 0.00 0.00 0.00 93 1012.4
20260506120856 14 338 0.0 3.2 0.00 0.00 0.00 93 1012.2
20260506120346 14 0 0.0 0.0 0.00 0.00 0.00 93 1012.2
20260506115836 13 23 0.0 0.0 0.00 0.00 0.00 93 1012.3
20260506115336 13 45 0.0 0.0 0.00 0.00 0.00 93 1012.3
20260506114306 13 68 0.0 0.0 0.00 0.00 0.00 92 1012.4
20260506113755 13 68 0.0 0.0 0.00 0.00 0.00 91 1012.3
20260506112736 13 113 0.0 0.0 0.00 0.00 0.00 88 1012.1
20260506112225 12 113 0.0 0.0 0.00 0.00 0.00 86 1012.2
20260506111715 12 113 0.0 0.0 0.00 0.00 0.00 86 1012.2
20260506111206 12 113 0.0 0.0 0.00 0.00 0.00 87 1012.1
20260506110145 12 113 0.0 0.0 0.00 0.00 0.00 87 1012.1
20260506105638 12 113 0.0 3.2 0.00 0.00 0.00 88 1012.2
20260506105125 12 113 1.6 3.2 0.00 0.00 0.00 88 1012.2
20260506104621 11 113 0.0 3.2 0.00 0.00 0.00 91 1012.1
20260506103554 12 113 0.0 0.0 0.00 0.00 0.00 93 1012.1
20260506102534 12 68 0.0 0.0 0.00 0.00 0.00 93 1011.8
20260506102024 12 45 0.0 0.0 0.00 0.00 0.00 93 1011.9
20260506101004 12 90 0.0 3.2 0.00 0.00 0.00 93 1011.8
20260506100453 13 68 0.0 0.0 0.00 0.00 0.00 93 1011.7
20260506095944 13 68 0.0 0.0 0.00 0.00 0.00 93 1011.6
20260506095434 13 90 0.0 3.2 0.00 0.00 0.00 93 1011.6
20260506094411 12 68 0.0 6.4 0.00 0.00 0.00 93 1011.8
20260506093903 12 68 0.0 3.2 0.00 0.00 0.00 93 1012.1
20260506093353 12 68 0.0 6.4 0.00 0.00 0.00 93 1011.9
20260506092843 12 68 1.6 6.4 0.00 0.00 0.00 93 1011.8
20260506092332 12 68 3.2 6.4 0.00 0.00 0.00 93 1011.8
20260506091822 12 68 4.8 6.4 0.00 0.00 0.00 92 1011.8
20260506091313 12 68 0.0 3.2 0.00 0.00 0.00 92 1011.8
20260506090252 13 135 0.0 0.0 0.00 0.00 0.00 91 1011.9
20260506085232 13 135 0.0 0.0 0.00 0.00 0.00 91 1011.8
20260506084212 13 135 0.0 0.0 0.00 0.00 0.00 90 1011.8
20260506083701 12 135 0.0 0.0 0.00 0.00 0.00 90 1011.7
20260506083152 12 135 0.0 0.0 0.00 0.00 0.00 89 1011.8
20260506082641 12 135 0.0 3.2 0.00 0.00 0.00 89 1011.6
20260506081621 13 90 0.0 0.0 0.00 0.00 0.00 89 1011.9
20260506081111 13 90 0.0 0.0 0.00 0.00 0.00 89 1011.9
20260506080601 13 90 0.0 0.0 0.00 0.00 0.00 88 1011.8
20260506073500 13 90 0.0 0.0 0.00 0.00 0.00 86 1011.8
20260506072950 13 90 0.0 0.0 0.00 0.00 0.00 87 1011.9
20260506072440 13 90 0.0 0.0 0.00 0.00 0.00 87 1012.1
20260506071930 13 90 0.0 0.0 0.00 0.00 0.00 87 1012.4
20260506071420 13 90 0.0 0.0 0.00 0.00 0.00 88 1012.3
20260506070909 13 90 0.0 0.0 0.00 0.00 0.00 89 1012.2
20260506070402 13 90 0.0 0.0 0.00 0.00 0.00 89 1012.4
20260506070203 13 90 0.0 0.0 0.00 0.00 0.00 89 1012.3
20260506062444 13 135 0.0 3.2 0.00 0.00 0.00 88 1012.5
20260506061933 13 90 0.0 3.2 0.00 0.00 0.00 89 1012.6
20260506061423 13 90 0.0 0.0 0.00 0.00 0.00 90 1012.4
20260506060913 13 135 0.0 0.0 0.00 0.00 0.00 90 1012.3
20260506060403 13 135 0.0 0.0 0.00 0.00 0.00 90 1012.6
20260506051222 13 135 0.0 0.0 0.00 0.00 0.00 91 1012.6
20260506050713 13 135 0.0 0.0 0.00 0.00 0.00 91 1012.5
20260506044632 13 113 0.0 0.0 0.00 0.00 0.00 91 1012.7
20260506044121 13 90 0.0 0.0 0.00 0.00 0.00 90 1013.1
20260506043611 13 90 0.0 0.0 0.00 0.00 0.00 90 1013.2
20260506043111 13 90 0.0 0.0 0.00 0.00 0.00 90 1013.1
20260506042551 13 90 0.0 0.0 0.00 0.00 0.00 90 1013.1
20260506042041 13 90 0.0 0.0 0.00 0.00 0.00 90 1013.0
20260506041540 13 90 0.0 0.0 0.00 0.00 0.00 90 1013.3
20260506041021 13 90 0.0 0.0 0.00 0.00 0.00 90 1013.4
20260506040511 13 90 0.0 0.0 0.00 0.00 0.00 90 1013.5
20260506035451 13 90 0.0 3.2 0.00 0.00 0.00 90 1013.5
20260506034941 13 90 0.0 6.4 0.00 0.00 0.00 89 1013.4
20260506034430 13 90 0.0 6.4 0.00 0.00 0.00 89 1013.5
20260506033920 13 135 0.0 0.0 0.00 0.00 0.00 88 1013.5
20260506033411 13 135 0.0 0.0 0.00 0.00 0.00 89 1013.5
20260506032900 13 135 0.0 0.0 0.00 0.00 0.00 89 1013.4
20260506032350 13 135 0.0 0.0 0.00 0.00 0.00 89 1013.6
20260506031840 14 90 0.0 0.0 0.00 0.00 0.00 89 1013.5
20260506031329 13 90 0.0 0.0 0.00 0.00 0.00 89 1013.4
20260506030820 14 90 0.0 0.0 0.00 0.00 0.00 89 1013.4
20260506030309 14 113 0.0 9.7 0.00 0.00 0.00 88 1013.9
20260506025759 14 113 0.0 9.7 0.00 0.00 0.00 88 1013.3
20260506025249 14 113 3.2 9.7 0.00 0.00 0.00 89 1013.6
20260506024739 15 135 3.2 9.7 0.00 0.00 0.00 90 1013.5
20260506024229 15 135 4.8 6.4 0.00 0.00 0.00 90 1013.5
20260506023719 15 135 3.2 9.7 0.00 0.00 0.00 90 1013.4
20260506023208 15 113 3.2 9.7 0.00 0.00 0.00 90 1013.4
20260506022659 15 158 6.4 9.7 0.00 0.00 0.00 90 1013.2
20260506022149 15 135 3.2 6.4 0.00 0.00 0.00 90 1013.3
20260506021638 15 135 6.4 6.4 0.00 0.00 0.00 90 1013.4
20260506021128 15 135 4.8 9.7 0.00 0.00 0.00 90 1013.5
20260506020618 15 135 4.8 9.7 0.00 0.00 0.00 89 1013.4
20260506020108 15 135 6.4 6.4 0.00 0.00 0.00 89 1013.3
20260506015558 16 135 3.2 6.4 0.00 0.00 0.00 89 1013.2
20260506015048 16 158 4.8 9.7 0.00 0.00 0.00 90 1013.2
20260506014538 16 158 3.2 9.7 0.00 0.00 0.00 90 1013.5
20260506014027 16 158 4.8 9.7 0.00 0.00 0.00 91 1013.0
20260506013525 16 158 6.4 11.3 0.00 0.00 0.00 91 1013.1
20260506013008 16 135 6.4 11.3 0.00 0.00 0.00 91 1013.5
20260506012457 16 180 6.4 12.9 0.00 0.00 0.00 91 1013.3
20260506011437 16 158 4.8 6.4 0.00 0.00 0.00 91 1013.1
20260506010416 17 158 0.0 3.2 0.00 0.00 0.00 91 1013.2
20260506005907 17 180 0.0 3.2 0.00 0.00 0.00 91 1013.2
20260506005356 17 158 0.0 6.4 0.00 0.00 0.00 91 1013.3
20260506004336 17 135 4.8 6.4 0.00 0.00 0.00 91 1013.2
20260506002806 17 158 0.0 0.0 0.00 0.00 0.00 91 1013.3
20260506002257 17 225 0.0 0.0 0.00 0.00 0.00 91 1013.0
20260506001746 17 225 0.0 0.0 0.00 0.00 0.00 91 1013.1
20260506001236 17 158 0.0 3.2 0.00 0.00 0.00 90 1012.8
20260506000726 18 158 0.0 3.2 0.00 0.00 0.00 90 1012.7
20260506000215 18 203 0.0 0.0 0.00 0.00 0.00 90 1012.8
20260505235705 18 203 0.0 0.0 0.00 0.00 0.00 90 1012.8
20260505235155 18 180 0.0 3.2 0.00 0.00 0.00 90 1012.6
20260505234645 18 180 0.0 3.2 0.00 0.00 0.00 90 1012.6
20260505234135 18 158 0.0 6.4 0.00 0.00 0.00 89 1012.8
20260505233625 18 158 0.0 6.4 0.00 0.00 0.00 89 1012.8
20260505233115 18 158 0.0 3.2 0.00 0.00 0.00 88 1012.7
20260505232605 18 203 1.6 3.2 0.00 0.00 0.00 88 1012.5
20260505232054 18 203 0.0 3.2 0.00 0.00 0.00 87 1012.4
20260505231544 18 203 0.0 6.4 0.00 0.00 0.00 87 1012.5
20260505231035 19 225 0.0 11.3 0.00 0.00 0.00 87 1012.4
20260505230524 19 225 3.2 11.3 0.00 0.00 0.00 86 1012.2
20260505230014 19 180 1.6 6.4 0.00 0.00 0.00 86 1011.8
20260505225504 19 225 0.0 9.7 0.00 0.00 0.00 86 1011.9
20260505224953 19 203 0.0 9.7 0.00 0.00 0.00 85 1011.8
20260505224443 19 248 0.0 12.9 0.00 0.00 0.00 85 1011.9
20260505222913 20 225 4.8 11.3 0.00 0.00 0.00 84 1012.1
20260505222403 20 248 3.2 17.7 0.00 0.00 0.00 83 1012.2
20260505221853 20 225 1.6 17.7 0.00 0.00 0.00 82 1011.9
20260505221343 20 203 3.2 12.9 0.00 0.00 0.00 81 1011.7
20260505220833 20 225 3.2 12.9 0.00 0.00 0.00 80 1011.5
20260505220323 20 203 6.4 17.7 0.00 0.00 0.00 79 1011.7
20260505215812 21 225 6.4 17.7 0.00 0.00 0.00 77 1011.4
20260505215308 21 203 6.4 11.3 0.00 0.00 0.00 76 1011.4
20260505213223 21 248 4.8 20.9 0.00 0.00 0.00 72 1011.6